| time (UTC) | temp C | wind direction | speed KPH | gust KPH | rain 1hr cm | rain 24hr cm | rain mn cm | humidity % | barometer mb |
| 20260510190549 | 26 | 232 | 0.0 | 6.4 | 0.00 | 0.00 | 0.00 | 46 | 974.4 |
| 20260510190057 | 26 | 200 | 0.0 | 3.2 | 0.00 | 0.00 | 0.00 | 49 | 974.4 |
| 20260510185549 | 25 | 200 | 0.0 | 8.0 | 0.00 | 0.00 | 0.00 | 51 | 974.5 |
| 20260510185048 | 25 | 200 | 1.6 | 8.0 | 0.00 | 0.00 | 0.00 | 45 | 974.4 |
| 20260510184549 | 25 | 199 | 0.0 | 4.8 | 0.00 | 0.00 | 0.00 | 47 | 974.5 |
| 20260510184050 | 25 | 198 | 0.0 | 4.8 | 0.00 | 0.00 | 0.00 | 47 | 974.5 |
| 20260510183548 | 25 | 198 | 1.6 | 3.2 | 0.00 | 0.00 | 0.00 | 45 | 974.5 |
| 20260510183048 | 25 | 196 | 0.0 | 3.2 | 0.00 | 0.00 | 0.00 | 49 | 974.6 |
| 20260510182551 | 26 | 196 | 0.0 | 6.4 | 0.00 | 0.00 | 0.00 | 45 | 974.6 |
| 20260510182048 | 26 | 196 | 0.0 | 6.4 | 0.00 | 0.00 | 0.00 | 48 | 974.6 |
| 20260510181547 | 26 | 214 | 0.0 | 8.0 | 0.00 | 0.00 | 0.00 | 47 | 974.6 |
| 20260510181047 | 26 | 214 | 0.0 | 8.0 | 0.00 | 0.00 | 0.00 | 44 | 974.7 |
| 20260510180546 | 26 | 275 | 1.6 | 6.4 | 0.00 | 0.00 | 0.00 | 44 | 974.7 |
| 20260510180054 | 26 | 273 | 1.6 | 6.4 | 0.00 | 0.00 | 0.00 | 43 | 974.8 |
| 20260510175545 | 26 | 271 | 0.0 | 6.4 | 0.00 | 0.00 | 0.00 | 45 | 974.8 |
| 20260510175046 | 26 | 227 | 1.6 | 9.7 | 0.00 | 0.00 | 0.00 | 44 | 974.8 |
| 20260510174545 | 26 | 240 | 1.6 | 12.9 | 0.00 | 0.00 | 0.00 | 43 | 974.9 |
| 20260510174047 | 27 | 37 | 3.2 | 12.9 | 0.00 | 0.00 | 0.00 | 42 | 974.9 |
| 20260510173543 | 27 | 270 | 3.2 | 9.7 | 0.00 | 0.00 | 0.00 | 45 | 975.0 |
| 20260510173042 | 26 | 71 | 0.0 | 9.7 | 0.00 | 0.00 | 0.00 | 44 | 975.0 |
| 20260510172542 | 27 | 71 | 3.2 | 19.3 | 0.00 | 0.00 | 0.00 | 43 | 975.2 |
| 20260510172045 | 27 | 123 | 3.2 | 19.3 | 0.00 | 0.00 | 0.00 | 45 | 975.1 |
| 20260510171542 | 27 | 29 | 3.2 | 14.5 | 0.00 | 0.00 | 0.00 | 44 | 975.1 |
| 20260510171044 | 26 | 231 | 1.6 | 11.3 | 0.00 | 0.00 | 0.00 | 43 | 975.2 |
| 20260510170541 | 27 | 30 | 3.2 | 9.7 | 0.00 | 0.00 | 0.00 | 43 | 975.2 |
| 20260510170044 | 26 | 239 | 0.0 | 8.0 | 0.00 | 0.00 | 0.00 | 46 | 975.2 |
| 20260510165540 | 26 | 225 | 1.6 | 9.7 | 0.00 | 0.00 | 0.00 | 43 | 975.3 |
| 20260510165043 | 27 | 11 | 1.6 | 9.7 | 0.00 | 0.00 | 0.00 | 43 | 975.2 |
| 20260510164542 | 27 | 271 | 4.8 | 17.7 | 0.00 | 0.00 | 0.00 | 45 | 975.2 |
| 20260510164038 | 26 | 24 | 3.2 | 16.1 | 0.00 | 0.00 | 0.00 | 46 | 975.3 |
| 20260510163538 | 27 | 241 | 3.2 | 11.3 | 0.00 | 0.00 | 0.00 | 44 | 975.3 |
| 20260510163049 | 27 | 11 | 3.2 | 11.3 | 0.00 | 0.00 | 0.00 | 42 | 975.2 |
| 20260510162537 | 26 | 28 | 4.8 | 14.5 | 0.00 | 0.00 | 0.00 | 45 | 975.2 |
| 20260510162034 | 26 | 57 | 0.0 | 14.5 | 0.00 | 0.00 | 0.00 | 52 | 975.3 |
| 20260510161545 | 26 | 62 | 6.4 | 12.9 | 0.00 | 0.00 | 0.00 | 49 | 975.3 |
| 20260510161033 | 26 | 5 | 3.2 | 9.7 | 0.00 | 0.00 | 0.00 | 50 | 975.4 |
| 20260510160533 | 25 | 273 | 1.6 | 17.7 | 0.00 | 0.00 | 0.00 | 50 | 975.4 |
| 20260510160045 | 25 | 82 | 4.8 | 17.7 | 0.00 | 0.00 | 0.00 | 50 | 975.4 |
| 20260510155535 | 25 | 16 | 4.8 | 14.5 | 0.00 | 0.00 | 0.00 | 50 | 975.5 |
| 20260510155033 | 25 | 19 | 3.2 | 14.5 | 0.00 | 0.00 | 0.00 | 51 | 975.5 |
| 20260510154529 | 25 | 14 | 3.2 | 9.7 | 0.00 | 0.00 | 0.00 | 51 | 975.5 |
| 20260510154029 | 25 | 55 | 4.8 | 12.9 | 0.00 | 0.00 | 0.00 | 52 | 975.5 |
| 20260510153528 | 25 | 63 | 8.0 | 12.9 | 0.00 | 0.00 | 0.00 | 51 | 975.6 |
| 20260510153028 | 25 | 270 | 3.2 | 17.7 | 0.00 | 0.00 | 0.00 | 52 | 975.7 |
| 20260510152530 | 25 | 80 | 4.8 | 17.7 | 0.00 | 0.00 | 0.00 | 54 | 975.7 |
| 20260510152025 | 24 | 11 | 3.2 | 11.3 | 0.00 | 0.00 | 0.00 | 53 | 975.7 |
| 20260510151524 | 24 | 246 | 3.2 | 12.9 | 0.00 | 0.00 | 0.00 | 53 | 975.9 |
| 20260510151023 | 24 | 5 | 3.2 | 19.3 | 0.00 | 0.00 | 0.00 | 54 | 975.8 |
| 20260510150523 | 24 | 271 | 6.4 | 19.3 | 0.00 | 0.00 | 0.00 | 54 | 975.9 |
| 20260510150024 | 23 | 10 | 1.6 | 11.3 | 0.00 | 0.00 | 0.00 | 55 | 976.0 |
| 20260510145523 | 23 | 5 | 4.8 | 11.3 | 0.00 | 0.00 | 0.00 | 55 | 975.9 |
| 20260510145018 | 23 | 35 | 3.2 | 14.5 | 0.00 | 0.00 | 0.00 | 57 | 975.9 |
| 20260510144530 | 23 | 11 | 1.6 | 14.5 | 0.00 | 0.00 | 0.00 | 58 | 975.9 |
| 20260510144021 | 22 | 26 | 6.4 | 19.3 | 0.00 | 0.00 | 0.00 | 57 | 975.9 |
| 20260510143517 | 22 | 38 | 6.4 | 19.3 | 0.00 | 0.00 | 0.00 | 57 | 975.9 |
| 20260510143018 | 22 | 5 | 4.8 | 9.7 | 0.00 | 0.00 | 0.00 | 58 | 975.9 |
| 20260510142515 | 22 | 12 | 4.8 | 11.3 | 0.00 | 0.00 | 0.00 | 60 | 976.0 |
| 20260510142014 | 22 | 88 | 3.2 | 11.3 | 0.00 | 0.00 | 0.00 | 59 | 976.0 |
| 20260510141522 | 22 | 270 | 1.6 | 8.0 | 0.00 | 0.00 | 0.00 | 60 | 976.0 |
| 20260510141012 | 22 | 5 | 3.2 | 6.4 | 0.00 | 0.00 | 0.00 | 61 | 975.9 |
| 20260510140510 | 21 | 243 | 1.6 | 9.7 | 0.00 | 0.00 | 0.00 | 62 | 975.9 |
| 20260510140012 | 21 | 272 | 3.2 | 9.7 | 0.00 | 0.00 | 0.00 | 62 | 976.0 |
| 20260510135514 | 21 | 30 | 1.6 | 9.7 | 0.00 | 0.00 | 0.00 | 63 | 976.0 |
| 20260510135006 | 21 | 198 | 3.2 | 14.5 | 0.00 | 0.00 | 0.00 | 63 | 976.2 |
| 20260510134505 | 20 | 45 | 1.6 | 11.3 | 0.00 | 0.00 | 0.00 | 64 | 976.2 |
| 20260510134004 | 20 | 28 | 1.6 | 12.9 | 0.00 | 0.00 | 0.00 | 64 | 976.1 |
| 20260510133507 | 20 | 24 | 4.8 | 12.9 | 0.00 | 0.00 | 0.00 | 64 | 976.1 |
| 20260510133003 | 20 | 5 | 4.8 | 8.0 | 0.00 | 0.00 | 0.00 | 64 | 976.1 |
| 20260510132503 | 20 | 267 | 3.2 | 6.4 | 0.00 | 0.00 | 0.00 | 65 | 976.2 |
| 20260510132101 | 20 | 271 | 1.6 | 9.7 | 0.00 | 0.00 | 0.00 | 66 | 976.2 |
| 20260510131601 | 19 | 221 | 3.2 | 11.3 | 0.00 | 0.00 | 0.00 | 66 | 976.1 |
| 20260510131059 | 19 | 271 | 3.2 | 11.3 | 0.00 | 0.00 | 0.00 | 66 | 976.2 |
| 20260510130558 | 19 | 275 | 3.2 | 8.0 | 0.00 | 0.00 | 0.00 | 66 | 976.1 |
| 20260510130101 | 18 | 219 | 1.6 | 9.7 | 0.00 | 0.00 | 0.00 | 67 | 976.2 |
| 20260510125558 | 18 | 243 | 1.6 | 9.7 | 0.00 | 0.00 | 0.00 | 68 | 976.1 |
| 20260510125054 | 18 | 25 | 1.6 | 9.7 | 0.00 | 0.00 | 0.00 | 69 | 976.1 |
| 20260510124554 | 18 | 12 | 1.6 | 8.0 | 0.00 | 0.00 | 0.00 | 71 | 976.1 |
| 20260510124053 | 17 | 271 | 1.6 | 8.0 | 0.00 | 0.00 | 0.00 | 72 | 976.1 |
| 20260510123555 | 17 | 258 | 1.6 | 9.7 | 0.00 | 0.00 | 0.00 | 73 | 976.0 |
| 20260510123049 | 17 | 275 | 3.2 | 9.7 | 0.00 | 0.00 | 0.00 | 74 | 976.0 |
| 20260510122546 | 16 | 261 | 1.6 | 8.0 | 0.00 | 0.00 | 0.00 | 76 | 975.9 |
| 20260510122045 | 16 | 50 | 1.6 | 8.0 | 0.00 | 0.00 | 0.00 | 77 | 976.0 |
| 20260510121544 | 16 | 15 | 3.2 | 8.0 | 0.00 | 0.00 | 0.00 | 79 | 976.0 |
| 20260510121046 | 15 | 26 | 3.2 | 6.4 | 0.00 | 0.00 | 0.00 | 80 | 975.9 |
| 20260510120541 | 15 | 27 | 1.6 | 8.0 | 0.00 | 0.00 | 0.00 | 81 | 975.8 |
| 20260510120039 | 14 | 59 | 3.2 | 8.0 | 0.00 | 0.00 | 0.00 | 82 | 975.9 |
| 20260510115537 | 14 | 9 | 0.0 | 4.8 | 0.00 | 0.00 | 0.00 | 83 | 975.9 |
| 20260510115036 | 13 | 10 | 3.2 | 4.8 | 0.00 | 0.00 | 0.00 | 83 | 975.9 |
| 20260510114536 | 13 | 9 | 1.6 | 6.4 | 0.00 | 0.00 | 0.00 | 84 | 975.8 |
| 20260510114034 | 13 | 9 | 1.6 | 6.4 | 0.00 | 0.00 | 0.00 | 85 | 975.7 |
| 20260510113534 | 12 | 40 | 1.6 | 4.8 | 0.00 | 0.00 | 0.00 | 85 | 975.6 |
| 20260510113034 | 12 | 51 | 0.0 | 4.8 | 0.00 | 0.00 | 0.00 | 86 | 975.7 |
| 20260510112533 | 12 | 22 | 1.6 | 6.4 | 0.00 | 0.00 | 0.00 | 86 | 975.6 |
| 20260510112033 | 12 | 22 | 1.6 | 6.4 | 0.00 | 0.00 | 0.00 | 86 | 975.5 |
| 20260510111532 | 11 | 9 | 3.2 | 6.4 | 0.00 | 0.00 | 0.00 | 86 | 975.4 |
| 20260510111031 | 11 | 10 | 1.6 | 4.8 | 0.00 | 0.00 | 0.00 | 86 | 975.3 |
| 20260510110530 | 11 | 10 | 0.0 | 4.8 | 0.00 | 0.00 | 0.00 | 86 | 975.2 |
| 20260510110029 | 11 | 10 | 1.6 | 4.8 | 0.00 | 0.00 | 0.00 | 86 | 975.0 |
| 20260510105528 | 11 | 11 | 1.6 | 6.4 | 0.00 | 0.00 | 0.00 | 86 | 974.9 |
| 20260510105027 | 11 | 11 | 3.2 | 6.4 | 0.00 | 0.00 | 0.00 | 86 | 974.8 |
| 20260510104527 | 11 | 28 | 1.6 | 4.8 | 0.00 | 0.00 | 0.00 | 86 | 974.7 |
| 20260510104025 | 11 | 33 | 1.6 | 4.8 | 0.00 | 0.00 | 0.00 | 86 | 974.7 |
| 20260510103525 | 11 | 27 | 1.6 | 4.8 | 0.00 | 0.00 | 0.00 | 86 | 974.7 |
| 20260510103025 | 11 | 27 | 0.0 | 4.8 | 0.00 | 0.00 | 0.00 | 86 | 974.6 |
| 20260510102525 | 11 | 27 | 0.0 | 4.8 | 0.00 | 0.00 | 0.00 | 86 | 974.6 |
| 20260510102024 | 11 | 27 | 0.0 | 3.2 | 0.00 | 0.00 | 0.00 | 86 | 974.4 |
| 20260510101523 | 11 | 27 | 0.0 | 3.2 | 0.00 | 0.00 | 0.00 | 85 | 974.5 |
| 20260510101024 | 11 | 27 | 0.0 | 1.6 | 0.00 | 0.00 | 0.00 | 86 | 974.4 |
| 20260510100523 | 11 | 27 | 0.0 | 4.8 | 0.00 | 0.00 | 0.00 | 86 | 974.4 |
| 20260510100023 | 11 | 27 | 0.0 | 4.8 | 0.00 | 0.00 | 0.00 | 86 | 974.4 |
| 20260510095523 | 11 | 5 | 0.0 | 4.8 | 0.00 | 0.00 | 0.00 | 86 | 974.3 |
| 20260510095023 | 11 | 5 | 1.6 | 4.8 | 0.00 | 0.00 | 0.00 | 86 | 974.3 |
| 20260510094522 | 11 | 5 | 1.6 | 4.8 | 0.00 | 0.00 | 0.00 | 85 | 974.2 |
| 20260510094021 | 11 | 5 | 0.0 | 3.2 | 0.00 | 0.00 | 0.00 | 85 | 974.2 |
| 20260510093522 | 11 | 5 | 0.0 | 3.2 | 0.00 | 0.00 | 0.00 | 84 | 974.2 |
| 20260510093020 | 11 | 5 | 0.0 | 3.2 | 0.00 | 0.00 | 0.00 | 83 | 974.1 |
| 20260510092519 | 11 | 5 | 0.0 | 1.6 | 0.00 | 0.00 | 0.00 | 83 | 974.0 |
| 20260510092018 | 11 | 5 | 0.0 | 1.6 | 0.00 | 0.00 | 0.00 | 83 | 973.9 |
| 20260510091518 | 12 | 5 | 0.0 | 3.2 | 0.00 | 0.00 | 0.00 | 82 | 973.9 |
| 20260510091018 | 12 | 5 | 0.0 | 4.8 | 0.00 | 0.00 | 0.00 | 82 | 973.9 |
| 20260510090518 | 12 | 5 | 0.0 | 4.8 | 0.00 | 0.00 | 0.00 | 82 | 973.8 |
| 20260510090019 | 12 | 5 | 0.0 | 4.8 | 0.00 | 0.00 | 0.00 | 81 | 973.8 |
| 20260510085516 | 12 | 5 | 0.0 | 6.4 | 0.00 | 0.00 | 0.00 | 81 | 973.8 |
| 20260510085020 | 12 | 5 | 1.6 | 6.4 | 0.00 | 0.00 | 0.00 | 81 | 973.8 |
| 20260510084516 | 12 | 5 | 0.0 | 8.0 | 0.00 | 0.00 | 0.00 | 81 | 973.8 |
| 20260510084016 | 12 | 9 | 1.6 | 8.0 | 0.00 | 0.00 | 0.00 | 81 | 973.8 |
| 20260510083518 | 12 | 10 | 1.6 | 4.8 | 0.00 | 0.00 | 0.00 | 82 | 973.8 |
| 20260510083015 | 12 | 9 | 1.6 | 6.4 | 0.00 | 0.00 | 0.00 | 82 | 973.8 |
| 20260510082515 | 12 | 10 | 1.6 | 4.8 | 0.00 | 0.00 | 0.00 | 82 | 973.7 |
| 20260510082014 | 12 | 10 | 0.0 | 9.7 | 0.00 | 0.00 | 0.00 | 83 | 973.7 |
| 20260510081532 | 12 | 10 | 0.0 | 9.7 | 0.00 | 0.00 | 0.00 | 83 | 973.6 |
| 20260510081012 | 12 | 267 | 1.6 | 6.4 | 0.00 | 0.00 | 0.00 | 82 | 973.5 |
| 20260510080511 | 12 | 267 | 3.2 | 6.4 | 0.00 | 0.00 | 0.00 | 82 | 973.4 |
| 20260510080011 | 12 | 257 | 1.6 | 6.4 | 0.00 | 0.00 | 0.00 | 82 | 973.4 |
| 20260510075511 | 12 | 257 | 0.0 | 6.4 | 0.00 | 0.00 | 0.00 | 83 | 973.3 |
| 20260510075010 | 12 | 253 | 0.0 | 6.4 | 0.00 | 0.00 | 0.00 | 84 | 973.2 |
| 20260510074510 | 11 | 253 | 3.2 | 6.4 | 0.00 | 0.00 | 0.00 | 85 | 973.2 |
| 20260510074014 | 11 | 224 | 0.0 | 4.8 | 0.00 | 0.00 | 0.00 | 85 | 973.2 |
| 20260510073513 | 11 | 222 | 0.0 | 3.2 | 0.00 | 0.00 | 0.00 | 85 | 973.2 |
| 20260510073013 | 11 | 222 | 0.0 | 3.2 | 0.00 | 0.00 | 0.00 | 85 | 973.1 |
| 20260510072512 | 11 | 222 | 0.0 | 6.4 | 0.00 | 0.00 | 0.00 | 86 | 973.2 |
| 20260510072009 | 11 | 222 | 0.0 | 6.4 | 0.00 | 0.00 | 0.00 | 86 | 973.1 |
| 20260510071513 | 11 | 221 | 0.0 | 1.6 | 0.00 | 0.00 | 0.00 | 85 | 973.1 |
| 20260510071009 | 11 | 221 | 0.0 | 1.6 | 0.00 | 0.00 | 0.00 | 85 | 973.1 |
| 20260510070508 | 11 | 221 | 0.0 | 1.6 | 0.00 | 0.00 | 0.00 | 85 | 973.0 |
| 20260510070007 | 11 | 221 | 0.0 | 1.6 | 0.00 | 0.00 | 0.00 | 85 | 973.0 |
| 20260510065507 | 11 | 221 | 0.0 | 1.6 | 0.00 | 0.00 | 0.00 | 85 | 973.1 |
| 20260510065006 | 11 | 221 | 0.0 | 1.6 | 0.00 | 0.00 | 0.00 | 85 | 973.0 |
| 20260510064505 | 11 | 221 | 0.0 | 0.0 | 0.00 | 0.00 | 0.00 | 85 | 973.0 |
| 20260510064005 | 11 | 221 | 0.0 | 0.0 | 0.00 | 0.00 | 0.00 | 85 | 973.1 |
| 20260510063505 | 11 | 221 | 0.0 | 0.0 | 0.00 | 0.00 | 0.00 | 85 | 973.1 |
| 20260510063005 | 11 | 221 | 0.0 | 0.0 | 0.00 | 0.00 | 0.00 | 85 | 973.1 |
| 20260510062504 | 11 | 221 | 0.0 | 0.0 | 0.00 | 0.00 | 0.00 | 85 | 973.3 |
| 20260510062004 | 11 | 221 | 0.0 | 3.2 | 0.00 | 0.00 | 0.00 | 84 | 973.3 |
| 20260510061508 | 11 | 221 | 0.0 | 3.2 | 0.00 | 0.00 | 0.00 | 84 | 973.3 |
| 20260510061003 | 11 | 221 | 0.0 | 0.0 | 0.00 | 0.00 | 0.00 | 84 | 973.3 |
| 20260510060503 | 11 | 221 | 0.0 | 0.0 | 0.00 | 0.00 | 0.00 | 84 | 973.2 |
| 20260510060001 | 11 | 221 | 0.0 | 0.0 | 0.00 | 0.00 | 0.00 | 83 | 973.2 |
| 20260510055600 | 11 | 221 | 0.0 | 0.0 | 0.00 | 0.00 | 0.00 | 83 | 973.3 |
| 20260510055100 | 11 | 221 | 0.0 | 0.0 | 0.00 | 0.00 | 0.00 | 83 | 973.4 |
| 20260510054559 | 11 | 221 | 0.0 | 0.0 | 0.00 | 0.00 | 0.00 | 82 | 973.3 |
| 20260510054058 | 12 | 221 | 0.0 | 3.2 | 0.00 | 0.00 | 0.00 | 82 | 973.3 |
| 20260510053557 | 12 | 221 | 0.0 | 4.8 | 0.00 | 0.00 | 0.00 | 82 | 973.2 |
| 20260510053115 | 12 | 221 | 1.6 | 3.2 | 0.00 | 0.00 | 0.00 | 82 | 973.3 |
| 20260510052556 | 12 | 221 | 0.0 | 1.6 | 0.00 | 0.00 | 0.00 | 82 | 973.3 |
| 20260510052059 | 12 | 221 | 0.0 | 1.6 | 0.00 | 0.00 | 0.00 | 82 | 973.4 |
| 20260510051605 | 12 | 221 | 0.0 | 4.8 | 0.00 | 0.00 | 0.00 | 82 | 973.3 |
| 20260510051055 | 12 | 221 | 1.6 | 4.8 | 0.00 | 0.00 | 0.00 | 82 | 973.4 |
| 20260510050557 | 12 | 221 | 0.0 | 4.8 | 0.00 | 0.00 | 0.00 | 82 | 973.3 |
| 20260510050107 | 12 | 221 | 0.0 | 3.2 | 0.00 | 0.00 | 0.00 | 81 | 973.3 |
| 20260510045554 | 12 | 221 | 0.0 | 0.0 | 0.00 | 0.00 | 0.00 | 81 | 973.3 |
| 20260510045056 | 12 | 221 | 0.0 | 0.0 | 0.00 | 0.00 | 0.00 | 81 | 973.2 |
| 20260510044604 | 12 | 221 | 0.0 | 0.0 | 0.00 | 0.00 | 0.00 | 81 | 973.2 |
| 20260510044052 | 12 | 221 | 0.0 | 0.0 | 0.00 | 0.00 | 0.00 | 81 | 973.1 |
| 20260510043552 | 12 | 221 | 0.0 | 0.0 | 0.00 | 0.00 | 0.00 | 81 | 973.1 |
| 20260510043057 | 12 | 221 | 0.0 | 0.0 | 0.00 | 0.00 | 0.00 | 81 | 973.3 |
| 20260510042551 | 12 | 221 | 0.0 | 0.0 | 0.00 | 0.00 | 0.00 | 80 | 973.2 |
| 20260510042052 | 12 | 221 | 0.0 | 0.0 | 0.00 | 0.00 | 0.00 | 80 | 973.3 |
| 20260510041548 | 12 | 221 | 0.0 | 0.0 | 0.00 | 0.00 | 0.00 | 80 | 973.2 |
| 20260510041048 | 12 | 221 | 0.0 | 0.0 | 0.00 | 0.00 | 0.00 | 79 | 973.2 |
| 20260510040547 | 13 | 221 | 0.0 | 0.0 | 0.00 | 0.00 | 0.00 | 79 | 973.1 |
| 20260510040047 | 13 | 221 | 0.0 | 0.0 | 0.00 | 0.00 | 0.00 | 79 | 973.1 |
| 20260510035545 | 13 | 221 | 0.0 | 0.0 | 0.00 | 0.00 | 0.00 | 79 | 973.0 |
| 20260510035045 | 13 | 221 | 0.0 | 0.0 | 0.00 | 0.00 | 0.00 | 78 | 973.0 |
| 20260510034545 | 13 | 221 | 0.0 | 0.0 | 0.00 | 0.00 | 0.00 | 78 | 973.1 |
| 20260510034046 | 13 | 221 | 0.0 | 0.0 | 0.00 | 0.00 | 0.00 | 78 | 973.1 |
| 20260510033547 | 13 | 221 | 0.0 | 0.0 | 0.00 | 0.00 | 0.00 | 77 | 973.0 |
| 20260510033057 | 13 | 221 | 0.0 | 0.0 | 0.00 | 0.00 | 0.00 | 77 | 972.9 |
| 20260510032548 | 13 | 221 | 0.0 | 0.0 | 0.00 | 0.00 | 0.00 | 76 | 972.9 |
| 20260510032044 | 13 | 221 | 0.0 | 0.0 | 0.00 | 0.00 | 0.00 | 76 | 972.8 |
| 20260510031545 | 13 | 221 | 0.0 | 0.0 | 0.00 | 0.00 | 0.00 | 75 | 972.8 |
| 20260510031043 | 13 | 221 | 0.0 | 0.0 | 0.00 | 0.00 | 0.00 | 75 | 972.8 |
| 20260510030544 | 13 | 221 | 0.0 | 0.0 | 0.00 | 0.00 | 0.00 | 75 | 972.7 |
| 20260510030100 | 13 | 221 | 0.0 | 0.0 | 0.00 | 0.00 | 0.00 | 74 | 972.7 |
| 20260510025544 | 13 | 221 | 0.0 | 0.0 | 0.00 | 0.00 | 0.00 | 74 | 972.7 |
| 20260510025043 | 14 | 221 | 0.0 | 0.0 | 0.00 | 0.00 | 0.00 | 73 | 972.6 |
| 20260510024543 | 14 | 221 | 0.0 | 0.0 | 0.00 | 0.00 | 0.00 | 73 | 972.6 |
| 20260510024043 | 14 | 221 | 0.0 | 0.0 | 0.00 | 0.00 | 0.00 | 73 | 972.5 |
| 20260510023542 | 14 | 221 | 0.0 | 0.0 | 0.00 | 0.00 | 0.00 | 74 | 972.5 |
| 20260510023043 | 14 | 221 | 0.0 | 0.0 | 0.00 | 0.00 | 0.00 | 74 | 972.5 |
| 20260510022542 | 14 | 221 | 0.0 | 0.0 | 0.00 | 0.00 | 0.00 | 74 | 972.5 |
| 20260510022042 | 14 | 221 | 0.0 | 0.0 | 0.00 | 0.00 | 0.00 | 73 | 972.5 |
| 20260510021543 | 14 | 221 | 0.0 | 0.0 | 0.00 | 0.00 | 0.00 | 73 | 972.4 |
| 20260510021042 | 14 | 221 | 0.0 | 0.0 | 0.00 | 0.00 | 0.00 | 72 | 972.3 |
| 20260510020542 | 15 | 221 | 0.0 | 0.0 | 0.00 | 0.00 | 0.00 | 72 | 972.4 |
| 20260510020042 | 15 | 221 | 0.0 | 0.0 | 0.00 | 0.00 | 0.00 | 71 | 972.3 |
| 20260510015541 | 15 | 221 | 0.0 | 1.6 | 0.00 | 0.00 | 0.00 | 70 | 972.2 |
| 20260510015041 | 15 | 221 | 0.0 | 1.6 | 0.00 | 0.00 | 0.00 | 69 | 972.1 |
| 20260510014542 | 15 | 221 | 0.0 | 3.2 | 0.00 | 0.00 | 0.00 | 68 | 972.0 |
| 20260510014041 | 15 | 221 | 0.0 | 3.2 | 0.00 | 0.00 | 0.00 | 67 | 971.9 |
| 20260510013541 | 16 | 221 | 0.0 | 1.6 | 0.00 | 0.00 | 0.00 | 67 | 971.7 |
| 20260510013040 | 16 | 221 | 0.0 | 3.2 | 0.00 | 0.00 | 0.00 | 67 | 971.6 |
| 20260510012541 | 16 | 221 | 0.0 | 3.2 | 0.00 | 0.00 | 0.00 | 66 | 971.4 |
| 20260510012040 | 16 | 221 | 0.0 | 4.8 | 0.00 | 0.00 | 0.00 | 65 | 971.4 |
| 20260510011541 | 16 | 221 | 0.0 | 4.8 | 0.00 | 0.00 | 0.00 | 65 | 971.2 |
| 20260510011039 | 16 | 221 | 0.0 | 3.2 | 0.00 | 0.00 | 0.00 | 65 | 971.3 |
| 20260510010540 | 16 | 221 | 0.0 | 3.2 | 0.00 | 0.00 | 0.00 | 65 | 971.1 |
| 20260510010040 | 16 | 221 | 0.0 | 3.2 | 0.00 | 0.00 | 0.00 | 64 | 971.1 |
| 20260510005540 | 17 | 221 | 0.0 | 4.8 | 0.00 | 0.00 | 0.00 | 64 | 971.1 |
| 20260510005039 | 17 | 221 | 1.6 | 4.8 | 0.00 | 0.00 | 0.00 | 63 | 971.0 |
| 20260510004541 | 17 | 221 | 1.6 | 4.8 | 0.00 | 0.00 | 0.00 | 62 | 970.9 |
| 20260510004039 | 18 | 221 | 1.6 | 4.8 | 0.00 | 0.00 | 0.00 | 61 | 970.9 |
| 20260510003539 | 18 | 221 | 1.6 | 4.8 | 0.00 | 0.00 | 0.00 | 59 | 970.9 |
| 20260510003046 | 18 | 221 | 3.2 | 4.8 | 0.00 | 0.00 | 0.00 | 57 | 970.9 |
| 20260510002538 | 19 | 221 | 0.0 | 3.2 | 0.00 | 0.00 | 0.00 | 55 | 970.9 |
| 20260510002038 | 20 | 221 | 0.0 | 3.2 | 0.00 | 0.00 | 0.00 | 53 | 970.8 |
| 20260510001539 | 20 | 221 | 0.0 | 3.2 | 0.00 | 0.00 | 0.00 | 50 | 970.8 |
| 20260510001038 | 20 | 221 | 0.0 | 8.0 | 0.00 | 0.00 | 0.00 | 52 | 970.6 |
| 20260510000540 | 21 | 237 | 1.6 | 6.4 | 0.00 | 0.00 | 0.00 | 50 | 970.6 |
| 20260510000138 | 21 | 238 | 0.0 | 3.2 | 0.00 | 0.00 | 0.00 | 51 | 970.4 |
| 20260509235537 | 21 | 238 | 0.0 | 8.0 | 0.00 | 0.00 | 0.00 | 49 | 970.4 |
| 20260509235041 | 21 | 238 | 1.6 | 8.0 | 0.00 | 0.00 | 0.00 | 49 | 970.4 |
| 20260509234551 | 21 | 240 | 1.6 | 8.0 | 0.00 | 0.00 | 0.00 | 46 | 970.3 |
| 20260509234039 | 21 | 239 | 1.6 | 6.4 | 0.00 | 0.00 | 0.00 | 47 | 970.2 |
| 20260509233541 | 22 | 206 | 1.6 | 11.3 | 0.00 | 0.00 | 0.00 | 46 | 970.1 |
| 20260509233038 | 22 | 267 | 0.0 | 11.3 | 0.00 | 0.00 | 0.00 | 45 | 970.0 |
| 20260509232536 | 22 | 266 | 1.6 | 6.4 | 0.00 | 0.00 | 0.00 | 44 | 970.1 |
| 20260509232037 | 22 | 219 | 0.0 | 6.4 | 0.00 | 0.00 | 0.00 | 44 | 970.1 |
| 20260509231537 | 22 | 219 | 1.6 | 8.0 | 0.00 | 0.00 | 0.00 | 44 | 970.0 |
| 20260509231036 | 22 | 254 | 1.6 | 8.0 | 0.00 | 0.00 | 0.00 | 44 | 970.0 |
| 20260509230536 | 22 | 233 | 1.6 | 8.0 | 0.00 | 0.00 | 0.00 | 44 | 969.8 |
| 20260509230040 | 23 | 15 | 4.8 | 16.1 | 0.00 | 0.00 | 0.00 | 44 | 969.8 |
| 20260509225536 | 23 | 178 | 4.8 | 16.1 | 0.00 | 0.00 | 0.00 | 43 | 969.8 |
| 20260509225035 | 23 | 254 | 3.2 | 11.3 | 0.00 | 0.00 | 0.00 | 47 | 969.8 |
| 20260509224535 | 23 | 271 | 1.6 | 6.4 | 0.00 | 0.00 | 0.00 | 47 | 969.7 |
| 20260509224037 | 23 | 30 | 0.0 | 9.7 | 0.00 | 0.00 | 0.00 | 46 | 969.7 |
| 20260509223536 | 23 | 190 | 0.0 | 8.0 | 0.00 | 0.00 | 0.00 | 47 | 969.7 |
| 20260509223040 | 23 | 226 | 1.6 | 4.8 | 0.00 | 0.00 | 0.00 | 46 | 969.8 |
| 20260509222538 | 23 | 218 | 0.0 | 6.4 | 0.00 | 0.00 | 0.00 | 46 | 969.7 |
| 20260509222036 | 23 | 213 | 3.2 | 9.7 | 0.00 | 0.00 | 0.00 | 44 | 969.6 |
| 20260509221537 | 23 | 208 | 0.0 | 12.9 | 0.00 | 0.00 | 0.00 | 45 | 969.7 |
| 20260509221034 | 23 | 190 | 3.2 | 11.3 | 0.00 | 0.00 | 0.00 | 44 | 969.7 |
| 20260509220533 | 24 | 252 | 1.6 | 19.3 | 0.00 | 0.00 | 0.00 | 44 | 969.7 |
| 20260509220034 | 25 | 197 | 4.8 | 19.3 | 0.00 | 0.00 | 0.00 | 42 | 969.6 |
| 20260509215536 | 24 | 26 | 4.8 | 12.9 | 0.00 | 0.00 | 0.00 | 43 | 969.6 |
| 20260509215033 | 23 | 254 | 3.2 | 14.5 | 0.00 | 0.00 | 0.00 | 44 | 969.5 |
| 20260509214533 | 23 | 207 | 3.2 | 14.5 | 0.00 | 0.00 | 0.00 | 43 | 969.6 |
| 20260509214032 | 23 | 22 | 1.6 | 9.7 | 0.00 | 0.00 | 0.00 | 45 | 969.5 |
| 20260509213532 | 23 | 104 | 3.2 | 9.7 | 0.00 | 0.00 | 0.00 | 45 | 969.5 |
| 20260509213033 | 24 | 13 | 1.6 | 14.5 | 0.00 | 0.00 | 0.00 | 44 | 969.4 |
| 20260509212536 | 24 | 270 | 3.2 | 14.5 | 0.00 | 0.00 | 0.00 | 43 | 969.3 |
| 20260509212034 | 24 | 360 | 4.8 | 12.9 | 0.00 | 0.00 | 0.00 | 44 | 969.2 |
| 20260509211532 | 24 | 269 | 3.2 | 12.9 | 0.00 | 0.00 | 0.00 | 44 | 969.1 |
| 20260509211032 | 24 | 30 | 3.2 | 12.9 | 0.00 | 0.00 | 0.00 | 44 | 969.2 |
| 20260509210534 | 24 | 17 | 1.6 | 12.9 | 0.00 | 0.00 | 0.00 | 43 | 969.2 |
| 20260509210035 | 24 | 250 | 1.6 | 6.4 | 0.00 | 0.00 | 0.00 | 44 | 969.2 |
| 20260509205532 | 24 | 248 | 1.6 | 9.7 | 0.00 | 0.00 | 0.00 | 44 | 969.2 |
| 20260509205032 | 24 | 55 | 1.6 | 9.7 | 0.00 | 0.00 | 0.00 | 43 | 969.1 |
| 20260509204531 | 24 | 223 | 1.6 | 8.0 | 0.00 | 0.00 | 0.00 | 44 | 969.2 |
| 20260509204031 | 24 | 254 | 1.6 | 11.3 | 0.00 | 0.00 | 0.00 | 43 | 969.0 |
| 20260509203530 | 24 | 271 | 1.6 | 12.9 | 0.00 | 0.00 | 0.00 | 43 | 969.0 |
| 20260509203029 | 24 | 15 | 4.8 | 11.3 | 0.00 | 0.00 | 0.00 | 42 | 969.0 |
| 20260509202530 | 24 | 13 | 4.8 | 14.5 | 0.00 | 0.00 | 0.00 | 42 | 969.1 |
| 20260509202030 | 25 | 10 | 3.2 | 17.7 | 0.00 | 0.00 | 0.00 | 42 | 969.0 |
| 20260509201529 | 25 | 275 | 6.4 | 17.7 | 0.00 | 0.00 | 0.00 | 41 | 968.9 |
| 20260509201031 | 24 | 48 | 4.8 | 14.5 | 0.00 | 0.00 | 0.00 | 42 | 969.0 |
| 20260509200532 | 25 | 22 | 8.0 | 14.5 | 0.00 | 0.00 | 0.00 | 42 | 968.9 |
| 20260509200029 | 24 | 360 | 4.8 | 14.5 | 0.00 | 0.00 | 0.00 | 42 | 969.0 |
| 20260509195531 | 24 | 10 | 1.6 | 16.1 | 0.00 | 0.00 | 0.00 | 42 | 968.9 |
| 20260509195028 | 24 | 271 | 6.4 | 16.1 | 0.00 | 0.00 | 0.00 | 43 | 969.0 |
| 20260509194526 | 24 | 13 | 4.8 | 20.9 | 0.00 | 0.00 | 0.00 | 43 | 969.0 |
| 20260509194026 | 25 | 43 | 8.0 | 20.9 | 0.00 | 0.00 | 0.00 | 42 | 969.0 |
| 20260509193526 | 25 | 23 | 4.8 | 9.7 | 0.00 | 0.00 | 0.00 | 41 | 969.0 |
| 20260509193033 | 26 | 270 | 4.8 | 12.9 | 0.00 | 0.00 | 0.00 | 42 | 969.1 |
| 20260509192525 | 25 | 73 | 4.8 | 14.5 | 0.00 | 0.00 | 0.00 | 41 | 969.0 |
| 20260509192027 | 25 | 271 | 4.8 | 16.1 | 0.00 | 0.00 | 0.00 | 42 | 969.0 |
| 20260509191523 | 25 | 44 | 6.4 | 17.7 | 0.00 | 0.00 | 0.00 | 42 | 969.2 |
| 20260509191022 | 25 | 5 | 3.2 | 24.1 | 0.00 | 0.00 | 0.00 | 43 | 969.2 |